Temperature
15 15 15 15 15 15 15 15 15 15 15 15 15 15 15 14 14 14 14 14 15 15 15 15 15 15 15 15 15 15 15 15 15 15 15 15 15 15 15 15 15 15 15
15 15 15 15 15 15 15 15 15 15 15 15 14 14 14 14 14 14 14 14 14 14 15 14 14 14 15 15 15 15 15 15 15 15 15 15 15 15 15 15 15 15 15
15 15 15 15 15 14 14 14 14 14 14 14 14 14 14 14 14 14 14 14 14 14 14 14 14 14 14 14 14 15 15 15 15 15 15 15 15 15 15 15 14 14 14
15 15 14 14 14 14 14 14 14 14 14 14 14 14 14 14 14 14 14 14 14 14 14 14 14 14 14 14 14 14 14 15 14 15 15 14 14 14 14 14 14 14 14
15 15 14 14 14 14 14 14 14 14 14 14 14 14 14 14 13 13 13 13 14 13 13 14 14 14 14 14 14 14 14 14 14 14 14 14 14 14 14 14 14 14 14
15 14 14 14 14 14 14 14 14 14 14 14 14 14 13 13 13 13 13 13 13 13 13 13 13 13 14 14 14 14 14 14 14 14 14 14 14 14 14 14 14 14 14
14 14 14 14 14 14 14 14 14 14 13 13 14 14 13 13 13 13 13 13 13 13 13 13 13 13 13 13 13 13 13 13 13 13 14 13 13 13 13 13 13 13 13
14 14 14 14 14 14 14 14 13 13 13 13 14 14 14 14 13 13 13 12 13 13 12 12 13 13 13 13 13 13 13 13 13 13 13 13 13 13 13 13 13 13 13
14 14 14 14 14 13 13 13 13 13 13 13 13 14 14 14 13 13 12 12 12 12 12 12 12 12 12 12 12 13 13 13 13 13 13 13 13 13 13 13 13 13 13
14 14 14 14 13 13 13 13 13 13 13 13 13 13 13 13 13 13 13 12 12 12 12 12 12 12 12 12 12 12 13 13 13 13 12 13 13 13 13 13 12 12 12
14 14 14 14 13 13 13 13 13 13 13 13 13 13 13 13 13 13 13 12 12 12 12 12 11 12 12 12 12 12 12 12 12 12 12 12 12 12 12 12 12 12 12
14 14 14 13 13 13 13 13 13 13 13 13 13 13 13 13 13 13 13 12 12 12 11 11 11 11 11 11 11 12 12 12 12 12 12 12 12 12 12 12 12 12 12
14 14 13 13 13 13 13 13 13 13 13 13 13 13 12 12 12 13 13 12 12 12 11 11 11 11 11 11 11 11 11 12 12 12 12 12 12 12 12 12 11 11 12
13 13 13 13 13 13 13 13 13 13 13 12 12 12 12 12 12 12 12 12 12 12 12 11 11 11 11 11 11 11 11 11 11 11 11 12 11 11 11 11 11 11 11
13 13 13 13 13 13 13 13 12 12 12 12 12 12 12 12 12 12 12 12 12 12 12 11 11 11 11 11 11 11 11 11 11 11 11 11 11 11 11 11 11 11 11
13 13 13 13 13 13 13 13 12 12 12 12 12 12 12 12 12 11 11 11 11 12 12 11 11 11 11 10 11 10 10 11 11 11 11 11 11 11 11 11 11 11 11
13 13 13 13 13 13 13 12 12 12 12 12 12 12 12 11 11 11 11 11 11 11 11 11 11 11 10 10 10 10 10 10 10 10 11 11 11 11 10 10 10 10 10
13 13 13 13 13 13 12 12 12 12 12 12 12 12 11 11 11 11 11 11 11 11 11 11 11 10 10 10 10 10 10 10 10 10 10 10 11 10 10 10 10 10 10
13 13 13 12 12 12 12 12 12 12 12 12 12 11 11 11 11 11 11 11 11 11 11 10 10 10 10 10 10 10 10 10 10 10 10 10 10 10 10 10 10 10 10
12 12 12 12 12 12 12 12 12 12 11 11 11 11 11 11 11 11 10 10 10 10 10 10 10 10 10 10 10 10 10 10 10 10 10 10 10 10 10 10 10 10 10
12 12 12 12 12 12 12 12 11 11 11 11 11 11 11 11 11 11 10 10 10 10 10 10 10 10 10 10 10 9 9 9 9 9 9 9 9 9 9 9 9 9 9
12 12 12 12 12 12 12 12 11 11 11 11 11 11 11 11 10 10 10 10 10 10 10 10 10 10 10 10 9 9 9 9 9 9 9 9 9 9 9 9 9 9 9
12 11 12 11 11 11 11 11 11 11 11 11 11 10 10 10 10 10 10 10 10 10 10 9 9 10 10 10 9 9 9 9 9 9 9 8 9 8 8 9 9 9 9
11 11 11 11 11 11 11 11 11 11 10 10 10 10 10 10 10 10 10 9 9 9 9 9 9 9 9 9 9 9 9 9 9 9 8 8 8 8 8 8 9 9 9
11 11 11 11 11 10 11 11 10 10 10 10 10 10 10 10 10 10 9 9 9 9 9 9 9 9 9 9 9 9 9 8 8 8 8 8 8 8 8 8 8 8 8
11 10 10 10 10 10 10 10 10 10 10 10 9 9 10 9 9 9 9 9 9 9 9 9 9 9 9 9 9 9 8 8 8 8 8 8 7 7 7 8 8 8 8
Wind_Speed
6 6 6 6 7 6 6 6 6 7 7 8 8 8 9 9 9 8 9 13 13 12 12 11 10 10 9 8 8 9 8 8 7 7 6 7 7 8 8 9 9 8 8
5 5 6 6 6 6 6 6 7 6 6 6 7 8 8 8 8 8 8 10 13 13 13 11 10 9 9 8 8 9 9 8 7 7 6 7 7 8 8 9 9 9 8
5 5 5 5 5 6 6 6 7 6 6 6 7 7 7 8 7 7 8 7 8 11 13 13 12 10 9 8 8 8 8 8 7 6 7 7 8 8 8 8 8 8 8
6 5 4 4 5 5 5 5 5 5 5 5 5 6 6 6 7 7 7 7 7 7 10 12 12 11 10 9 8 7 8 8 7 8 8 8 8 8 8 8 8 8 8
5 4 4 4 4 4 4 4 4 4 5 5 5 5 5 5 6 6 7 7 7 7 7 9 11 12 11 11 10 8 8 8 8 9 9 9 9 9 8 8 8 8 8
4 4 3 4 4 3 3 4 5 4 4 4 4 5 5 5 5 6 6 7 7 8 7 7 6 8 11 11 11 10 10 9 9 9 9 9 9 9 8 8 8 8 8
3 3 2 3 3 3 3 3 4 4 3 3 3 4 4 5 6 5 5 5 6 7 7 7 6 6 6 9 11 11 10 9 9 9 9 9 9 8 8 8 8 8 8
2 2 2 2 2 2 2 3 2 2 2 1 1 0 2 3 4 5 4 4 5 5 6 7 7 7 6 6 10 11 11 11 10 10 9 9 9 7 7 7 7 6 6
2 1 1 1 2 2 2 1 1 1 1 1 2 2 1 1 2 3 5 5 5 4 5 5 6 7 6 6 7 10 10 10 10 10 9 9 8 8 8 7 6 6 6
1 1 1 1 1 1 1 1 1 0 0 1 1 2 2 2 0 1 2 4 5 5 5 4 5 6 6 6 8 10 10 9 9 9 8 8 7 8 8 8 7 8 7
1 1 1 1 1 1 1 1 0 0 0 1 1 1 1 1 1 1 1 2 3 4 4 5 4 4 5 5 6 8 9 8 8 8 8 7 7 7 7 7 7 7 7
1 2 1 1 1 1 1 1 0 0 0 1 1 0 0 0 0 0 1 1 2 3 3 3 3 3 4 4 6 8 8 8 7 7 7 7 6 6 6 6 6 7 7
2 3 3 2 2 1 1 1 1 1 1 0 1 0 0 1 1 1 1 0 1 1 1 2 3 3 3 3 4 6 6 6 6 7 6 6 6 5 6 6 6 6 6
3 3 3 3 2 2 2 2 2 2 1 1 0 1 1 1 1 1 1 1 1 0 0 1 2 2 2 2 4 2 4 5 5 5 6 6 6 6 6 6 5 5 5
3 3 3 3 3 3 3 3 2 2 2 1 1 1 1 1 1 2 2 2 2 2 1 0 0 1 1 2 2 2 2 5 4 4 5 5 5 5 5 5 5 5 5
4 4 4 3 3 3 4 4 3 2 2 2 1 2 2 2 1 2 2 2 2 2 2 0 0 0 1 1 2 2 2 5 4 4 4 4 4 4 3 4 4 4 4
4 5 5 4 4 4 4 4 4 3 3 3 2 2 2 2 2 2 2 2 2 2 2 2 1 1 1 0 1 1 1 1 3 4 3 3 3 3 3 3 3 3 3
5 5 5 4 4 4 4 4 4 4 4 3 3 3 3 2 2 2 2 2 2 3 3 3 2 2 1 1 0 0 1 1 1 4 3 2 2 2 1 2 2 2 2
5 5 5 5 5 5 5 5 5 5 4 4 4 4 4 3 3 3 3 3 3 3 3 3 3 2 2 1 1 1 1 0 1 2 3 2 1 1 0 1 1 2 2
5 5 5 5 5 5 5 5 5 5 5 4 4 4 4 4 4 3 3 3 3 4 4 4 4 3 3 3 2 2 1 1 1 1 1 1 2 2 2 1 1 2 2
5 5 5 5 5 4 4 5 5 5 5 5 4 4 4 3 2 3 3 3 4 4 4 4 4 4 3 3 3 2 2 2 2 1 1 1 2 2 2 3 3 3 3
5 5 5 5 5 4 3 3 5 6 6 5 5 5 4 4 4 4 3 4 5 6 5 5 5 5 6 5 3 3 3 3 3 2 3 2 2 2 2 2 2 4 4
4 4 5 5 5 4 4 5 5 6 6 5 5 5 4 4 5 5 4 5 5 6 7 7 7 7 6 5 5 5 5 5 4 2 3 3 3 3 3 2 3 5 5
4 4 5 5 4 3 4 5 6 7 6 6 5 6 5 5 4 5 5 5 5 6 6 7 7 6 5 5 6 6 5 4 3 3 3 4 3 4 3 3 5 5 5
4 4 4 5 5 4 3 4 5 5 5 6 5 6 5 6 2 4 6 6 6 5 4 5 5 4 3 4 4 4 5 4 4 4 4 4 4 4 4 4 5 7 7
4 3 4 4 5 4 4 4 6 4 5 5 5 5 4 4 3 4 6 6 6 5 4 5 5 5 5 5 7 7 6 6 5 4 4 4 4 4 3 4 3 5 6
Wind_Direction
70 75 77 76 74 77 80 76 73 73 71 67 66 65 63 59 58 59 64 61 53 49 48 53 56 60 67 70 77 79 82 80 77 74 77 79 81 83 84 81 79 79 77
75 75 76 75 73 74 74 76 76 73 71 69 67 64 59 59 57 56 57 61 57 50 46 49 53 59 63 65 71 73 75 70 71 75 80 84 86 87 89 83 78 74 77
76 79 77 79 79 79 79 77 75 72 74 74 70 65 62 58 55 54 51 49 55 56 50 47 49 54 60 68 72 73 72 69 67 78 86 84 85 87 89 83 80 75 75
76 79 79 79 82 86 86 83 76 77 75 72 68 64 62 61 56 55 53 50 46 46 53 49 47 50 55 58 66 74 76 74 70 90 93 89 87 85 85 83 82 79 77
80 85 78 80 85 88 87 86 79 73 75 72 70 65 58 56 54 52 52 49 52 47 46 53 53 50 50 49 54 63 72 78 75 87 93 94 93 88 83 82 83 79 76
79 83 89 87 89 94 93 94 90 81 75 76 72 69 63 63 58 49 45 46 45 44 43 43 49 56 55 49 50 56 61 72 78 82 85 89 93 90 84 79 80 80 78
94 88 89 92 88 89 94 104 101 95 84 81 88 83 86 71 60 53 45 45 47 43 41 43 42 43 58 62 53 51 55 63 73 80 83 84 84 88 87 84 81 81 80
103 100 99 101 105 101 103 103 106 95 77 32 17 59 107 103 64 53 48 45 42 45 40 42 43 43 43 56 59 53 52 56 66 75 80 81 80 84 85 82 81 81 80
115 112 94 106 110 118 108 110 118 104 77 59 13 349 355 63 71 66 53 48 44 41 40 37 41 41 47 53 63 60 52 52 59 66 74 75 76 75 77 75 76 81 83
133 138 126 123 121 109 114 141 107 79 35 62 64 18 20 54 79 90 72 57 46 42 39 36 34 38 42 54 61 57 53 50 56 62 67 69 71 72 72 72 73 71 75
161 170 166 157 152 142 135 110 90 326 331 360 20 65 71 61 352 116 83 56 55 47 41 36 34 35 38 47 55 58 54 51 57 61 62 65 67 72 76 74 74 73 70
190 188 182 190 186 177 164 151 169 188 321 10 339 26 347 14 60 132 152 75 52 46 42 38 34 33 33 46 54 60 59 59 62 63 63 64 67 73 76 73 73 72 70
205 207 200 198 185 177 183 187 204 210 204 229 290 322 325 341 313 273 212 271 35 58 58 53 42 37 33 39 55 64 70 68 69 67 67 66 67 72 74 73 74 74 72
216 206 204 198 193 191 192 191 208 202 212 207 224 240 245 263 273 271 256 239 256 258 140 66 60 39 33 45 55 64 77 81 77 74 72 72 71 74 75 75 74 68 66
212 202 201 199 193 194 199 199 212 208 213 227 237 224 232 232 250 258 254 258 267 269 285 78 101 59 43 45 56 54 73 92 90 81 80 80 77 75 80 80 76 65 64
206 201 198 197 192 191 201 207 217 219 220 213 249 256 246 236 233 227 243 260 264 266 273 281 246 160 60 67 50 35 60 104 106 96 90 86 83 76 86 89 80 73 72
204 204 201 201 197 198 203 201 213 217 228 224 225 235 235 242 235 238 248 247 244 239 238 260 256 222 188 101 59 40 39 102 108 111 102 92 90 85 78 95 87 86 90
208 209 201 202 203 207 211 210 217 219 228 234 236 235 232 223 238 248 247 243 234 229 224 238 239 240 239 185 101 344 25 84 111 115 119 108 98 93 83 87 94 107 114
212 211 207 207 207 211 214 219 223 228 232 234 235 239 237 229 233 237 239 243 239 230 225 228 236 236 229 211 216 233 232 147 136 128 141 145 143 150 134 100 103 119 135
215 211 211 210 213 214 218 220 221 224 229 232 237 240 241 238 244 249 245 246 243 236 228 228 228 226 221 214 218 226 239 221 227 138 133 164 169 181 193 203 192 172 162
220 218 215 212 213 216 222 224 222 226 229 232 236 242 241 242 272 261 255 251 250 245 235 230 227 231 228 219 226 229 234 226 241 237 231 218 206 211 205 211 212 201 189
218 219 219 219 215 216 196 228 240 226 231 235 237 239 235 226 230 227 244 259 257 246 241 238 235 232 233 232 228 224 228 233 247 225 243 241 238 245 238 232 179 189 201
209 218 218 218 221 206 179 206 236 236 231 235 239 240 235 230 232 240 228 232 241 243 247 249 246 245 243 233 225 228 234 239 248 231 245 249 242 248 239 211 167 190 204
207 219 222 216 221 212 186 206 223 234 236 234 237 243 239 235 232 247 241 240 246 243 238 244 253 255 251 239 232 236 240 241 250 225 228 251 243 248 240 215 177 192 204
214 220 228 221 217 206 177 201 223 234 237 236 235 237 243 241 226 253 247 246 249 244 226 237 267 275 266 241 230 221 217 222 239 232 224 243 244 245 244 228 192 191 202
215 218 229 228 224 221 174 195 225 232 240 240 240 236 230 248 223 240 243 247 253 254 244 233 235 235 234 214 210 222 224 230 239 236 211 227 236 237 237 224 217 204 205
Height
1531 1531 1531 1531 1531 1531 1531 1531 1531 1531 1531 1531 1531 1530 1530 1530 1529 1529 1528 1527 1527 1526 1525 1525 1524 1523 1524 1523 1523 1523 1523 1523 1524 1524 1524 1525 1525 1525 1526 1526 1526 1526 1525
1533 1533 1533 1533 1533 1533 1533 1533 1533 1533 1533 1532 1532 1532 1532 1531 1531 1530 1530 1529 1528 1527 1527 1526 1525 1525 1525 1524 1524 1524 1524 1524 1524 1524 1524 1525 1525 1526 1526 1526 1527 1527 1526
1535 1535 1535 1535 1535 1535 1535 1535 1535 1535 1534 1534 1534 1534 1533 1533 1532 1532 1531 1531 1530 1529 1528 1527 1527 1526 1526 1525 1525 1524 1524 1524 1523 1523 1524 1525 1526 1526 1526 1527 1527 1527 1527
1537 1537 1537 1537 1537 1537 1537 1536 1537 1536 1536 1536 1536 1536 1535 1534 1534 1533 1533 1532 1531 1530 1530 1529 1528 1528 1527 1527 1526 1525 1525 1524 1523 1522 1523 1525 1526 1526 1527 1528 1528 1528 1528
1539 1539 1538 1538 1538 1538 1538 1538 1538 1538 1538 1537 1537 1537 1537 1536 1535 1535 1534 1534 1532 1531 1531 1530 1529 1528 1528 1528 1527 1527 1526 1525 1525 1524 1525 1526 1526 1527 1527 1528 1528 1528 1528
1540 1540 1540 1540 1539 1540 1539 1539 1539 1539 1539 1539 1539 1538 1538 1537 1537 1536 1535 1535 1534 1533 1532 1531 1531 1530 1529 1529 1528 1528 1527 1526 1526 1526 1526 1526 1527 1527 1528 1528 1528 1528 1528
1541 1540 1540 1540 1540 1540 1540 1540 1540 1540 1540 1540 1540 1540 1539 1539 1538 1537 1536 1536 1535 1534 1533 1533 1532 1531 1531 1530 1529 1529 1528 1527 1527 1526 1527 1527 1527 1527 1528 1528 1528 1528 1528
1541 1541 1541 1541 1541 1541 1541 1541 1540 1541 1540 1540 1541 1541 1541 1541 1539 1539 1538 1537 1536 1535 1534 1534 1533 1532 1532 1531 1530 1530 1529 1529 1528 1527 1528 1528 1528 1528 1529 1529 1529 1529 1529
1542 1542 1542 1542 1541 1541 1541 1541 1541 1541 1541 1541 1541 1542 1541 1541 1541 1541 1539 1538 1537 1536 1535 1535 1534 1533 1533 1532 1532 1531 1530 1530 1529 1528 1529 1529 1529 1529 1529 1529 1529 1529 1529
1541 1541 1541 1541 1541 1542 1541 1541 1541 1541 1541 1541 1541 1540 1541 1541 1541 1541 1541 1540 1538 1537 1536 1535 1535 1534 1533 1533 1532 1531 1531 1531 1530 1530 1530 1530 1530 1530 1529 1529 1529 1529 1529
1541 1541 1541 1541 1541 1541 1541 1541 1541 1541 1541 1541 1541 1541 1540 1540 1541 1541 1541 1541 1540 1538 1537 1536 1535 1534 1534 1533 1533 1532 1532 1531 1531 1531 1530 1530 1530 1530 1530 1530 1530 1529 1529
1540 1540 1540 1541 1541 1541 1541 1541 1541 1541 1541 1541 1541 1541 1541 1541 1541 1541 1540 1540 1540 1539 1538 1536 1536 1535 1534 1534 1533 1533 1532 1532 1531 1531 1531 1530 1530 1530 1530 1530 1530 1530 1530
1539 1539 1539 1540 1540 1540 1541 1541 1541 1541 1541 1540 1540 1540 1540 1540 1540 1540 1540 1540 1539 1539 1538 1537 1536 1535 1534 1534 1534 1533 1532 1532 1532 1531 1531 1531 1530 1530 1530 1530 1530 1530 1530
1538 1538 1538 1539 1539 1539 1540 1540 1540 1540 1540 1540 1540 1539 1539 1539 1539 1539 1540 1539 1539 1539 1539 1538 1537 1536 1535 1534 1534 1533 1533 1532 1532 1531 1531 1530 1530 1530 1530 1530 1530 1530 1530
1536 1536 1537 1537 1538 1538 1538 1539 1539 1539 1539 1539 1539 1539 1539 1538 1538 1538 1538 1539 1539 1538 1538 1538 1537 1536 1535 1534 1533 1533 1533 1532 1531 1531 1531 1530 1530 1530 1530 1529 1529 1529 1529
1534 1534 1535 1535 1536 1536 1537 1537 1537 1537 1538 1538 1537 1538 1537 1537 1537 1536 1536 1537 1537 1537 1537 1537 1536 1535 1535 1533 1533 1532 1532 1531 1531 1530 1530 1530 1529 1529 1529 1529 1528 1528 1528
1532 1532 1533 1533 1534 1535 1535 1535 1535 1535 1536 1536 1536 1536 1536 1536 1535 1535 1535 1535 1535 1535 1535 1535 1535 1535 1534 1533 1532 1531 1531 1531 1530 1529 1529 1529 1528 1528 1527 1528 1527 1527 1527
1530 1531 1531 1531 1532 1532 1533 1533 1533 1534 1534 1534 1534 1534 1534 1534 1534 1534 1533 1534 1534 1534 1534 1533 1533 1533 1533 1532 1531 1530 1530 1530 1529 1528 1528 1527 1527 1527 1527 1526 1526 1526 1526
1527 1528 1529 1529 1529 1530 1530 1531 1531 1531 1532 1532 1532 1532 1532 1532 1532 1532 1532 1532 1532 1532 1531 1531 1531 1531 1531 1530 1530 1529 1529 1528 1528 1527 1527 1526 1526 1525 1525 1525 1525 1524 1524
1524 1525 1526 1526 1527 1527 1528 1528 1529 1529 1529 1529 1530 1530 1530 1530 1530 1530 1530 1530 1530 1529 1529 1529 1529 1529 1528 1528 1528 1528 1527 1527 1527 1526 1525 1525 1524 1524 1523 1523 1523 1523 1522
1521 1522 1523 1523 1524 1524 1525 1525 1526 1526 1527 1527 1527 1527 1527 1527 1527 1527 1527 1526 1527 1527 1526 1526 1526 1526 1526 1526 1526 1525 1525 1525 1525 1524 1524 1523 1523 1522 1522 1521 1521 1521 1521
1517 1518 1519 1520 1521 1521 1521 1522 1523 1523 1524 1524 1524 1524 1524 1524 1523 1523 1523 1523 1523 1523 1523 1523 1523 1523 1523 1523 1523 1523 1523 1523 1523 1523 1522 1522 1521 1521 1520 1520 1519 1519 1519
1514 1514 1515 1516 1517 1517 1518 1518 1519 1520 1520 1521 1521 1521 1520 1520 1520 1520 1520 1520 1519 1519 1520 1520 1520 1520 1520 1520 1520 1520 1520 1520 1520 1520 1520 1519 1519 1518 1518 1517 1516 1516 1516
1510 1511 1511 1512 1513 1513 1514 1514 1515 1516 1517 1517 1517 1517 1517 1517 1517 1517 1516 1516 1516 1516 1516 1516 1517 1516 1517 1517 1517 1517 1517 1517 1517 1517 1517 1517 1516 1515 1515 1514 1513 1513 1513
1506 1507 1508 1509 1509 1509 1510 1510 1511 1512 1513 1513 1513 1513 1513 1513 1513 1513 1513 1513 1513 1512 1512 1512 1512 1512 1512 1513 1513 1514 1514 1514 1514 1513 1513 1513 1513 1513 1512 1511 1511 1510 1510
1503 1504 1504 1504 1505 1505 1506 1506 1507 1508 1509 1509 1509 1509 1509 1509 1509 1509 1509 1509 1509 1508 1508 1508 1508 1509 1509 1509 1509 1510 1510 1510 1510 1510 1510 1510 1509 1509 1509 1508 1508 1507 1507